User: anonymous   Login
Location: Goheenville
(40.9070°N, 79.3720°W)
Time: 09:05:35
(UTC-05:00)
Language:

Cosmos 1727 Rocket - Orbit

View from above orbital plane
View from above orbital plane
View from above satellite
View from above satellite

Ground track
Ground track

The orbit data is extracted from the following two-line orbital elements,

1 16511U 86008B   16043.14243124 -.00000040  00000-0 -56961-4 0  9998
2 16511  82.9422 224.0623 0023610 212.1331 285.1984 13.75810544508757
Epoch (UTC): 12 February 2016 03:25:06
Eccentricity: 0.0023610
inclination: 82.9422°
perigee height: 961 km
apogee height: 996 km
right ascension of ascending node: 224.0623°
argument of perigee: 212.1331°
revolutions per day: 13.75810544
mean anomaly at epoch: 285.1984°
orbit number at epoch: 50875

The dashed part of the orbit path shows where the satellite is in the earth's shadow,  

DLR